Погода Ачисай

Погода Ачисай : погода сейчас, прогноз погоды и архив. Всё, что Вы хотите узнать о погоде Ачисай!

Поиск расширенной информации на нашем сайте:

Другие новости

Новости СМИ2

Главная страница сайта

Новости сайта

02.10.2013

Напоминаем, что на нашем новом сайте вы можете получить высокодетализированные прогнозы погоды по пунктам России, СНГ и мира (включающие важные для авиации метеовеличины, такие как направление и скорость ветра, видимость, явления погоды, количество и форма облачности, нижняя и верхняя граница облачности), а также ознакомиться с разнообразными материалами по авиационной метеорологии и подборкой полезных ссылок на эту тему.

Сайт Метеоцентр.Азия посвящён разработке технологий оптимизации авиаметеорологического обслуживания, включая проектирование и перспективное создание нескольких автоматизированных авиаметеорологических систем:
- система выпуска высокодетальных прогностических карт явлений погоды для нижнего воздушного пространства по России и ближнему зарубежью;
- система верификации прогнозов TAF (выпускаемых синоптиками официальных АМСГ РФ и ближнего зарубежья) и AUTOTAF (выпускаемых сайтом Метеоцентр.Азия) - выявление ошибок, онлайн-сопоставление с фактической погодой METAR, автоматическое внесение коррективов в прогнозы при резком отклонении фактической погоды от прогноза, подсчёт оправдываемости прогнозов по элементам и в целом;
- система обработки, анализа и отображения авиаметеорологической информации для применения провайдерами метеорологической информации.


Погода Ачисай - сегодня

Время (UTC), дата Ветер
(°,м/с) 
Видим.   Явления Облачность Т
(°С)
Тd
(°С)
f(%) Тe
(°С)
Pmin
(гПа)
dP
(гПа)
Po
(мм)
O2
(г/м3)
Тmin Tmax R s Состояние
почвы
18 22.05.17 тихо ()   20000 м    3/3 1000 м 
[Sc]
+21 +9.9 49 +24  1003.9  0.5  685  255    +29.1       
21 22.05.17 320 (СЗ) 20000 м    ясно 
+19.3 +10.9 58 +25  1004.9  0.5  686  256           
00 23.05.17 180 (Ю) 20000 м    10/10 600 м кучево-дожд. 
[Cb cap]
+20.1 +10.7 55 +24  1006.7  1.8  687  256           
03 23.05.17 320 (СЗ) 20000 м    10/10 600 м кучево-дожд. 
[Cb cap]
+20.8 +10.7 52 +25  1010.3  3.4  690  256           
06 23.05.17 140 (ЮВ) 20000 м    10/6 600 м кучево-дожд., верхняя 
[Cb cap|Ci sp]
+21.2 +11.1 52 +26  1011.9  1.7  691  256  +19.1         
09 23.05.17 340 (С) 20000 м    3/0 верхняя 
[Ci sp]
+24.1 +8.6 37 +25  1011.2  0.1  691  254           
12 23.05.17 360 (С) 20000 м    ясно 
+24.1 +7.4 34 +24  1011.9  0.6  691  255           
15 23.05.17 320 (СЗ) 20000 м    ясно 
+19.8 +9.4 51 +23  1013.3  0.1  692  258    +25       
18 23.05.17 320 (СЗ) 20000 м    ясно 
+17.7 +8.6 55 +20  1014.7  0.6  692  260    +25       
21 23.05.17 320 (СЗ) 20000 м    ясно 
+18.6 +9.5 55 +22  1014  -0.3  692  259           
00 24.05.17 270 (З) 20000 м    6/3 600 м кучево-дожд., верхняя 
[Cb cap|Ci sp]
+17.6 +8.2 54 +18  1014.2  -0.2  692  260           
03 24.05.17 320 (СЗ) 20000 м    8/8 600 м кучево-дожд. 
[Cb cap]
+22 +9.4 45 +24  1012.9  0.2  692  256           
06 24.05.17 110 (В) 20000 м    9/8 600 м кучево-дожд., верхняя 
[Cb cap|Ci sp]
+26.8 +10.5 36 +30  1010.8  -0.6  691  252  +16.5         
09 24.05.17 090 (В) 20000 м    9/6 600 м кучево-дожд., верхняя 
[Cb cap|Ci sp]
+27.2 +8.8 31 +28  1010.1  -0.5  691  252           
12 24.05.17 290 (З) 20000 м    4/3 600 м кучево-дожд., верхняя 
[Cb cap|Ci sp]
+27.2 +8.5 31 +28  1008.8  -1.2  690  251           
15 24.05.17 320 (СЗ) 20000 м    ясно 
+23.5 +9 40 +25  1009.7  -0.2  690  254    +27.6       
18 24.05.17 020 (С) 20000 м    ясно 
+22.6 +9.7 44 +25  1011.1  691  255    +27.6       
21 24.05.17 340 (С) 20000 м    ясно 
+21.7 +9.2 45 +23  1010.9  -0.4  690  256           
00 25.05.17 320 (СЗ) 20000 м    3/0 верхняя 
[Ci sp]
+19.1 +8.5 50 +21  1011.3  -0.4  690  258           
03 25.05.17 360 (С) 20000 м    10/0 верхняя 
[Ci sp]
+22.9 +5.8 33 +23  1010.5  0.2  690  256           
06 25.05.17 050 (СВ) 20000 м    6/0 верхняя 
[Ci sp]
+25.2 +5.5 28 +25  1010.5  0.7  691  254  +18.7         
09 25.05.17 020 (С) 20000 м    8/0 верхняя 
[Ci sp]
+27.1 +5.5 25 +27  1009.6  -0.3  690  252           
12 25.05.17 020 (С) 20000 м    6/1 600 м кучево-дожд., верхняя 
[Cb cap|Ci sp]
+26.9 +5.9 26 +27  1009.7  690  252           
15 25.05.17 340 (С) 20000 м    10/4 600 м верхняя 
[Sc|Ci sp]
+24.6 +5.3 29 +25  1010.4  690  254    +27.6       
18 25.05.17 340 (С) 20000 м    4/3 600 м верхняя 
[Sc|Ci sp]
+22.1 +6.1 35 +22  1012.8  1.5  692  257    +27.6       
Время (UTC), дата Ветер
(°,м/с) 
Видим.   Явления Облачность Т
(°С)
Тd
(°С)
f(%) Тe
(°С)
Pmin
(гПа)
dP
(гПа)
Po
(мм)
O2
(г/м3)
Тmin Tmax R s Состояние
почвы

Для получения пояснительной информации подведите курсор к названию столбца.

ПОГОДА Ачисай - архив

Всё, что Вы хотите узнать о погоде Ачисай - удобно и подробно!

Выберите нужную дату (начиная с 1 января 2015* года) и нажмите кнопку "Найти".
Будут отображены архивные сводки погоды по пункту Ачисай, начиная с указанной даты.


Отображать данные в формате CSV (для использования в таблицах Excel)


Внимание! Наш архив погоды предназначен исключительно для личного некоммерческого использования в познавательных целях. Если Вам необходимы официальные справки о состоянии погоды (для производственных, юридических, коммерческих и т.п. целей), обращайтесь в органы Росгидромета.

*Примечание: данная дата относится к архиву по метеостанциям СССР (Россия, СНГ, Балтия).
Архив по метеостанциям Зарубежной Европы и Азии (кроме Китая) хранится 10 дней, по другим регионам земного шара (Китай, Африка, Америка, Австралия, Океания) - 1 день.

Ачисай - район местоположения метеостанции


Название, широта, долгота, высота метеостанции:
Ачисай 43.6°ш. 68.9°д. 822 м над ур. моря [Казахстан]

Дополнительная информация

В oтличие oт бoльшинства пoгoдных сайтoв мы публикуем пoдрoбную метеoинфoрмацию в детальнoм прoфессиoнальнoм фoрмате.

Характеристики температуры и влажнoсти вoздуха измеряются на высoте 2 м в тени вдали oт зданий и деревьев.
Скoрoсть ветра измеряется на высoте 10 м (на урoвне рoста челoвека скoрoсть ветра ниже в 1.5-2 раза). Если метеoстанция нахoдится в гoрoде или в лесу, тo скoрoсть ветра занижена на 2-4 м/с пo сравнению с oткрытым местoм. Скoрoсть ветра над акватoриями крупных рек и oзёр, а также на вершинах хoлмoв на 2-5 м/с выше, чем в oбычных услoвиях.
Атмoсфернoе давление в разных тoчках местнoсти мoжет значительнo oтличаться oт давления на метеoстанции, в зависимoсти oт услoвий рельефа (при пoдъёме на 10 м давление пoнижается примернo на 1 мм рт.ст.).